Date String (YYYY-MM-DD hh:mm:ss) UTC,Instrument flags,absolute air pressure of the measurement (hPa),sample flow rate (lpm),inlet stack bypass flow (lpm),air temperature of the measurement (°C),ambient temperature measured by the external sensor (°C),aerosol sample conditioner tube jacket temperature (°C),OPC LED temperature (°C),internal box temperature (°C),relative humidity of the measurement (%),span deviation,mass concentration of particles derived from Lorenz-Mie calculation of OPC scattering (μg/m³),mass concentration of particles derived from Lorenz-Mie calculation of OPC scattering (μg/m³),mass concentration of particles derived from Lorenz-Mie calculation of OPC scattering (μg/m³)
DateTimeUTC,F1_M11,P_M11,Q1_M11,Q2_M11,T1_M11,T2_M11,T3_M11,T4_M11,T5_M11,U1_M11,ZSPAN_M11,X2_M11,X0_M11,X1_M11
2023-08-02 03:00:00,SystemResetWarning,0835.0,5.02,000.00,030.4,026.7,000.0,038.3,031.3,37.7,0000.0,0002.89,0005.57,0002.09
2023-08-02 03:01:00,SystemResetWarning,0835.3,5.01,000.00,030.5,025.7,000.0,038.2,031.2,37.3,0000.0,0002.91,0005.64,0002.09
2023-08-02 03:02:00,SystemResetWarning,0834.9,4.99,000.00,030.8,025.6,000.0,038.2,031.1,36.8,0000.0,0002.92,0005.66,0002.10
2023-08-02 03:03:00,SystemResetWarning,0834.9,5.01,000.00,031.1,025.9,000.0,038.3,031.1,36.2,0000.0,0002.93,0005.62,0002.10
2023-08-02 03:04:00,SystemResetWarning,0834.9,5.00,000.00,031.4,026.3,000.0,038.4,031.3,35.6,0000.0,0002.89,0005.47,0002.10
2023-08-02 03:05:00,SystemResetWarning,0835.1,4.99,000.00,031.8,026.6,000.0,038.5,031.4,34.6,0000.0,0002.82,0005.22,0002.10
2023-08-02 03:06:00,SystemResetWarning,0835.0,4.98,000.00,032.0,027.0,000.0,038.6,031.5,33.9,0000.0,0002.82,0005.09,0002.13
2023-08-02 03:07:00,SystemResetWarning,0835.0,5.01,000.00,032.2,027.3,000.0,038.8,031.6,33.8,0000.0,0002.78,0004.94,0002.13
2023-08-02 03:08:00,SystemResetWarning,0835.0,5.01,000.00,032.3,027.5,000.0,039.0,031.6,33.6,0000.0,0002.74,0004.86,0002.10
2023-08-02 03:09:00,SystemResetWarning,0835.0,5.01,000.00,032.4,027.7,000.0,039.1,031.6,33.3,0000.0,0002.69,0004.79,0002.08
2023-08-02 03:10:00,SystemResetWarning,0835.0,5.00,000.00,032.4,027.9,000.0,039.3,031.7,33.2,0000.0,0002.64,0004.50,0002.07
2023-08-02 03:11:00,SystemResetWarning,0835.0,4.99,000.00,032.4,028.1,000.0,039.4,031.7,33.1,0000.0,0002.59,0003.77,0002.05
2023-08-02 03:12:00,SystemResetWarning,0835.0,5.00,000.00,032.4,028.2,000.0,039.5,031.7,33.2,0000.0,0002.55,0003.65,0002.05
2023-08-02 03:13:00,SystemResetWarning,0835.0,5.00,000.00,032.4,028.3,000.0,039.6,031.8,33.2,0000.0,0002.52,0003.57,0002.06
2023-08-02 03:14:00,SystemResetWarning,0835.0,5.00,000.00,032.4,028.4,000.0,039.7,031.8,33.2,0000.0,0002.48,0004.67,0002.05
2023-08-02 03:15:00,SystemResetWarning,0835.0,5.00,000.00,032.4,028.5,000.0,039.8,031.9,33.1,0000.0,0002.46,0004.73,0002.03
2023-08-02 03:16:00,SystemResetWarning,0835.0,5.00,000.00,032.3,028.6,000.0,039.9,031.9,32.7,0000.0,0002.47,0004.81,0002.03
2023-08-02 03:17:00,SystemResetWarning,0835.0,5.00,000.00,032.3,027.9,000.0,039.8,031.9,32.4,0000.0,0002.45,0004.80,0002.02
2023-08-02 03:18:00,SystemResetWarning,0835.0,5.00,000.00,032.3,026.3,000.0,039.7,031.7,32.3,0000.0,0002.45,0004.81,0002.02
2023-08-02 03:19:00,SystemResetWarning,0835.1,5.00,000.00,032.2,025.7,000.0,039.7,031.5,32.7,0000.0,0002.56,0005.07,0002.08
2023-08-02 03:20:00,SystemResetWarning,0835.1,5.02,000.00,032.0,025.8,000.0,039.7,031.3,33.3,0000.0,0002.67,0005.19,0002.15
2023-08-02 03:21:00,SystemResetWarning,0835.1,5.01,000.00,031.8,026.1,000.0,039.7,031.3,33.8,0000.0,0002.80,0005.46,0002.24
2023-08-02 03:22:00,SystemResetWarning,0835.1,5.00,000.00,031.8,026.5,000.0,039.7,031.3,34.3,0000.0,0002.95,0005.67,0002.35
2023-08-02 03:23:00,SystemResetWarning,0835.1,5.00,000.00,031.7,026.9,000.0,039.7,031.4,34.5,0000.0,0003.10,0005.99,0002.45
2023-08-02 03:24:00,SystemResetWarning,0835.1,5.00,000.00,031.6,027.2,000.0,039.7,031.5,34.6,0000.0,0003.22,0006.55,0002.56
2023-08-02 03:25:00,SystemResetWarning,0835.0,5.00,000.00,031.6,027.4,000.0,039.7,031.5,34.8,0000.0,0003.33,0007.12,0002.67
2023-08-02 03:26:00,SystemResetWarning,0835.1,5.00,000.00,031.5,027.6,000.0,039.7,031.5,34.8,0000.0,0003.44,0007.57,0002.79
2023-08-02 03:27:00,SystemResetWarning,0835.1,5.00,000.00,031.5,027.8,000.0,039.7,031.6,34.8,0000.0,0003.55,0007.76,0002.89
2023-08-02 03:28:00,SystemResetWarning,0835.1,5.00,000.00,031.5,028.0,000.0,039.6,031.6,34.7,0000.0,0003.65,0007.98,0002.97
2023-08-02 03:29:00,SystemResetWarning,0835.1,5.00,000.00,031.4,028.1,000.0,039.6,031.6,34.6,0000.0,0003.78,0008.68,0003.08
2023-08-02 03:30:00,SystemResetWarning,0835.1,5.00,000.00,031.4,028.2,000.0,039.6,031.7,34.5,0000.0,0003.85,0009.22,0003.14
2023-08-02 03:31:00,SystemResetWarning,0835.1,5.00,000.00,031.4,028.3,000.0,039.6,031.7,34.1,0000.0,0003.91,0009.53,0003.16
2023-08-02 03:32:00,SystemResetWarning,0835.1,5.00,000.00,031.3,028.4,000.0,039.6,031.7,33.9,0000.0,0004.00,0009.75,0003.20
2023-08-02 03:33:00,SystemResetWarning,0835.1,5.00,000.00,031.3,028.4,000.0,039.6,031.7,33.3,0000.0,0004.04,0009.94,0003.23
2023-08-02 03:34:00,SystemResetWarning,0835.0,5.00,000.00,031.3,028.5,000.0,039.5,031.8,32.7,0000.0,0004.11,0010.06,0003.26
2023-08-02 03:35:00,SystemResetWarning,0835.0,5.00,000.00,031.3,028.0,000.0,039.5,031.8,32.5,0000.0,0004.13,0010.10,0003.28
2023-08-02 03:36:00,SystemResetWarning,0835.0,4.99,000.00,031.3,026.4,000.0,039.3,031.6,32.3,0000.0,0004.14,0010.15,0003.28
2023-08-02 03:37:00,SystemResetWarning,0835.0,5.01,000.00,031.2,025.6,000.0,039.2,031.4,32.7,0000.0,0004.17,0010.22,0003.31
2023-08-02 03:38:00,SystemResetWarning,0835.0,5.01,000.00,031.0,025.6,000.0,039.2,031.1,33.4,0000.0,0004.22,0010.33,0003.32
2023-08-02 03:39:00,SystemResetWarning,0835.0,5.00,000.00,030.8,026.0,000.0,039.2,031.1,34.3,0000.0,0004.23,0010.36,0003.34
2023-08-02 03:40:00,SystemResetWarning,0835.0,4.99,000.00,030.8,026.4,000.0,039.2,031.1,34.4,0000.0,0004.21,0009.90,0003.35
2023-08-02 03:41:00,SystemResetWarning,0834.9,4.99,000.00,030.7,026.7,000.0,039.2,031.2,34.4,0000.0,0004.21,0009.40,0003.36
2023-08-02 03:42:00,SystemResetWarning,0835.0,5.00,000.00,030.7,027.0,000.0,039.1,031.3,33.5,0000.0,0004.23,0009.27,0003.38
2023-08-02 03:43:00,SystemResetWarning,0835.1,5.02,000.00,030.7,027.3,000.0,039.1,031.3,32.4,0000.0,0004.20,0009.13,0003.37
2023-08-02 03:44:00,SystemResetWarning,0835.1,5.00,000.00,030.7,027.5,000.0,039.1,031.3,33.0,0000.0,0004.19,0009.06,0003.36
2023-08-02 03:45:00,SystemResetWarning,0835.2,4.99,000.00,030.6,027.7,000.0,039.0,031.3,33.5,0000.0,0004.21,0009.14,0003.37
2023-08-02 03:46:00,SystemResetWarning,0835.3,5.00,000.00,030.6,027.9,000.0,039.0,031.4,34.2,0000.0,0004.18,0009.01,0003.38
2023-08-02 03:47:00,SystemResetWarning,0835.2,4.99,000.00,030.6,028.0,000.0,039.0,031.4,35.2,0000.0,0004.16,0008.84,0003.38
2023-08-02 03:48:00,SystemResetWarning,0835.3,5.03,000.00,030.8,028.1,000.0,039.0,031.5,34.8,0000.0,0004.17,0008.52,0003.39
2023-08-02 03:49:00,SystemResetWarning,0835.3,4.97,000.00,030.9,028.2,000.0,039.0,031.6,34.3,0000.0,0004.15,0008.40,0003.40
2023-08-02 03:50:00,SystemResetWarning,0835.2,5.02,000.00,031.0,028.2,000.0,039.0,031.6,34.1,0000.0,0004.15,0008.37,0003.40
2023-08-02 03:51:00,SystemResetWarning,0835.3,5.00,000.00,031.0,028.3,000.0,039.0,031.6,34.5,0000.0,0004.14,0008.35,0003.40
2023-08-02 03:52:00,SystemResetWarning,0835.3,4.99,000.00,031.0,028.4,000.0,039.0,031.6,34.4,0000.0,0004.13,0008.29,0003.40
2023-08-02 03:53:00,SystemResetWarning,0835.3,5.00,000.00,031.1,028.4,000.0,039.1,031.6,34.0,0000.0,0004.11,0008.35,0003.39
2023-08-02 03:54:00,SystemResetWarning,0835.5,5.00,000.00,031.1,028.5,000.0,039.1,031.7,33.4,0000.0,0004.11,0008.70,0003.40
2023-08-02 03:55:00,SystemResetWarning,0835.3,5.01,000.00,031.1,028.5,000.0,039.1,031.7,33.0,0000.0,0004.10,0009.06,0003.40
2023-08-02 03:56:00,SystemResetWarning,0835.3,5.00,000.00,031.1,028.4,000.0,039.1,031.7,33.1,0000.0,0004.02,0008.96,0003.38
2023-08-02 03:57:00,SystemResetWarning,0835.3,4.99,000.00,031.1,026.9,000.0,039.0,031.6,33.2,0000.0,0004.04,0008.92,0003.38
2023-08-02 03:58:00,SystemResetWarning,0835.3,5.00,000.00,031.0,025.4,000.0,036.3,029.3,33.4,0000.0,0004.09,0008.84,0003.40
2023-08-02 03:59:00,SystemResetWarning,0835.4,5.01,000.00,030.9,025.6,000.0,038.9,031.1,33.2,0000.0,0004.07,0008.52,0003.39
